Regional Weather Roundup
Issued by NWS

Home | Current Version | Previous Version | Graphics & Text | Print | Product List | Glossary On
Versions: 1 2 3 4 5 6 7 8 9 10 11 12 13 14 15 16 17 18 19 20 21 22 23 24 25 26 27 28 29 30 31 32 33 34 35 36 37 38 39 40 41 42 43 44 45 46 47 48 49 50
000
ASUS43 KLOT 240258
RWRIL

ILLINOIS REGIONAL WEATHER ROUNDUP
NATIONAL WEATHER SERVICE CHICAGO/ROMEOVILLE IL
1000 PM CDT WED APR 23 2014

NOTE: "FAIR" INDICATES FEW OR NO CLOUDS BELOW 12,000 FEET WITH NO
SIGNIFICANT WEATHER AND/OR OBSTRUCTIONS TO VISIBILITY.

* THESE STATIONS ARE NOT UNDER NWS QUALITY CONTROL. THEY ALSO MAY NOT
  REPORT WEATHER SUCH AS PRECIPITATION OR FOG.

ILZ001-002-007-009-015-016-024-240400-
NORTHWEST ILLINOIS

CITY           SKY/WX    TMP DP  RH WIND       PRES   REMARKS
MOLINE         CLOUDY    48  40  73 SE7       29.98R
$$

ILZ003-004-008-010-011-017-018-240400-
NORTH CENTRAL ILLINOIS

CITY           SKY/WX    TMP DP  RH WIND       PRES   REMARKS
ROCKFORD       NOT AVBL
$$

ILZ005-006-012>014-019>023-240400-
NORTHEAST ILLINOIS

CITY           SKY/WX    TMP DP  RH WIND       PRES   REMARKS
CHICAGO-OHARE  CLOUDY    42  20  41 NE10      30.08F
CHICAGO-MIDWAY CLOUDY    42  26  53 E12       30.08F
AURORA         LGT RAIN  43  27  53 NE8       30.06S
WAUKEGAN       CLOUDY    37  22  54 E5        30.09F WCI  33
DUPAGE AIRPORT CLOUDY    42  22  44 E10       30.06F
WHEELING       CLOUDY    40  22  48 E7        30.10F
NORTHERLY ISL    N/A     39  31  73 NE9         N/A  WCI  33
$$

LMZ740>746-240400-
SOUTHERN LAKE MICHIGAN

STATION/POSITION SKY/WX   TEMP    WIND        PRES    VSBY  WAVE
                          AIR SEA DIR/SP/G                  HT/PER
                          (F)     (DEG/KT/KT) (MB)    (MI)  (FT/S)
WAUKEGAN HARBOR            38      60/  8/  9 1020.7F
HARRISON CRIB              38      50/  9/ 11   N/A
BURNHAM HARBOR             39      50/  9/ 11   N/A
CALUMET HARBOR             39      70/ 11/ 12 1019.9F
MICHIGAN CITY              38      30/ 10/ 12   N/A
$$

ILZ025>027-034>036-040-047-049-050-058-095>099-240400-
WEST-CENTRAL ILLINOIS

CITY           SKY/WX    TMP DP  RH WIND       PRES   REMARKS
$$

ILZ028>032-037-038-041>044-048-051>054-059>061-240400-
CENTRAL ILLINOIS

CITY           SKY/WX    TMP DP  RH WIND       PRES   REMARKS
PEORIA         NOT AVBL
SPRINGFIELD    MOCLDY    57  28  33 SE12      29.99F
TAYLORVILLE    NOT AVBL
$$

ILZ033-039-045-046-055>057-062-063-240400-
EAST-CENTRAL ILLINOIS

CITY           SKY/WX    TMP DP  RH WIND       PRES   REMARKS
CHAMPAIGN      LGT RAIN  52  42  69 E8        30.02F
$$

ILZ079-100>102-240400-
SOUTHWEST ILLINOIS

CITY           SKY/WX    TMP DP  RH WIND       PRES   REMARKS
ALTON          PTCLDY    54  37  54 E7        29.99S
CAHOKIA*       PTCLDY    58  37  45 SE12      29.96F
$$

ILZ064>066-069>071-074>076-080>082-084>086-088>090-092>094-240400-
SOUTH-CENTRAL ILLINOIS

CITY           SKY/WX    TMP DP  RH WIND       PRES   REMARKS
CARBONDALE     PTCLDY    54  37  52 E6        30.00S
$$

ILZ067-068-072-073-078-083-087-091-240400-
SOUTHEAST ILLINOIS

CITY           SKY/WX    TMP DP  RH WIND       PRES   REMARKS
$$

ABBREVIATIONS USED IN REMARKS
   TC - TEMPERATURE IN CELSIUS
  WCI - WIND CHILL INDEX
   HX - HEAT INDEX
  VSB - VISIBILITY
$$




USA.gov is the U.S. government's official web portal to all federal, state and local government web resources and services.